Regional Weather Roundup
Issued by NWS Grand Forks, ND

Home | Current Version | Previous Version | Text Only | Print | Product List | Glossary On
Versions: 1 2 3 4 5 6 7 8 9 10 11 12 13 14 15 16 17 18 19 20 21 22 23 24 25 26 27 28 29 30 31 32 33 34 35 36 37 38 39 40 41 42 43 44 45 46 47 48 49 50
000
ASUS43 KFGF 250631
RWRFGF
PRAIRIE TO PINES  WEATHER ROUNDUP
NATIONAL WEATHER SERVICE EASTERN NORTH DAKOTA/GRAND FORKS ND
1200 AM CST SUN FEB 25 2018

 **SATELLITE DATA USED TO AUGMENT SKY COVER AT AUTOMATED STATIONS**
 *****  WEATHER ACROSS EASTERN NORTH DAKOTA  *****

CITY           SKY/WX    TMP DP  RH WIND       PRES   REMARKS
GRAND FORKS    CLOUDY    12  10  92 W9        29.55S FOG     WCI   0
6HR MIN TEMP:   6; 6HR MAX TEMP:  17; 6HR PCP:  0.11;

GRAND FRKS AFB CLOUDY    13  10  89 W6        29.55F WCI   4
GRAND FRKS NWS   N/A     13  12  97 NW5       29.52F WCI   5
DEVILS LAKE    FAIR      11   9  92 SW8       29.53F WCI  -1
6HR MIN TEMP:  11; 6HR MAX TEMP:  19; 6HR PCP: TRACE;

FARGO          MOCLDY    11  10  96 W7        29.54F FOG     WCI   0
WAHPETON ARPT  CLOUDY     7   3  85 W8        29.56R WCI  -6
$$

 ***** WEATHER ACROSS CENTRAL AND WESTERN NORTH DAKOTA  *****

CITY           SKY/WX    TMP DP  RH WIND       PRES   REMARKS
BISMARCK       MOCLDY    10   5  80 NW3       29.58S
6HR MIN TEMP:   4; 6HR MAX TEMP:  20;

MINOT          CLOUDY    21  14  74 SW9       29.52F WCI  11
6HR MIN TEMP:  16; 6HR MAX TEMP:  21;

JAMESTOWN      FAIR      10   8  92 W9        29.53F WCI  -3
6HR MIN TEMP:  10; 6HR MAX TEMP:  15; 6HR PCP:  0.01;

MINOT AFB      CLOUDY    21  16  79 W9          N/A  WCI  11
GARRISON         N/A     19  15  84 W13       29.54S WCI   6
WILLISTON      CLOUDY    23  18  81 W18       29.59S WCI   9
6HR MIN TEMP:  18; 6HR MAX TEMP:  23; 6HR PCP: TRACE;

DICKINSON      CLOUDY    17  13  84 W21       29.55S WCI   0
6HR MIN TEMP:  11; 6HR MAX TEMP:  19;

HETTINGER      FAIR      12   5  73 W14       29.62R WCI  -3
6HR MIN TEMP:   6; 6HR MAX TEMP:  16;

$$

 *****  OTHER AIRPORT OBSERVATIONS IN OUR AREA  *****

CITY           SKY/WX    TMP DP  RH WIND       PRES   REMARKS
WALHALLA       FAIR      14  14 100 CALM      29.54F
GRAFTON AIRPOR CLOUDY    16  16 100 W8        29.58F FOG     WCI   5
VALLEY CITY AR FLURRIES  16  16 100 W12       29.55F WCI   3
CANDO          FAIR       5   5 100 W5        29.53S WCI  -4
CAVALIER APRT  LGT SNOW  16  16 100 SW5       29.55F WCI   9
GWINNER          N/A     16  14  93 SW9       29.56S WCI   4
SHEYENNE NWR     N/A     14  14  99 W8        29.95S WCI   3
ROLLA          FAIR       3   1  92 SW6       29.49S WCI  -8
 ***** THE ABOVE OBSERVATIONS ARE NON NWS ARE NOT QUALITY
       CONTROLLED AND MAY MIS-REPORT RAIN FOR SNOW...
$$

  *****  WEATHER ACROSS NORTHERN MINNESOTA  *****

CITY           SKY/WX    TMP DP  RH WIND       PRES   REMARKS
FLAG ISLAND    MIX PCPN  19  16  86 N8        29.53F WCI   9
WARROAD        LGT SNOW  19  16  86 N6        29.53F WCI  11
ROSEAU         LGT SNOW  19  16  86 NE7       29.52F WCI  10
HALLOCK        LGT SNOW  19  18  93 E5        29.54F WCI  13
THF RVR FALLS  LGT SNOW  18  16  93 N7        29.51F FOG     WCI   8
6HR MIN TEMP:  18; 6HR MAX TEMP:  20; 6HR PCP: TRACE;

BAUDETTE       LGT SNOW  21  19  92 N7        29.49F VSB 3/4 WCI  12
6HR MIN TEMP:  20; 6HR MAX TEMP:  24;

WASKISH        LGT SNOW  21  19  93 CALM      29.46F VSB 3/4
CROOKSTON      MIX PCPN  18  16  93 CALM      29.54F
STEPHEN NDAWN    N/A     18  16  93 E5          N/A  WCI  11
GREENBUSH NDAW   N/A     18  16  93 NE3         N/A
$$
  *****  WEATHER ACROSS CENTRAL AND WEST MINNESOTA  *****

CITY           SKY/WX    TMP DP  RH WIND       PRES   REMARKS
FOSSTON        FLURRIES  16  14  93 N5        29.49F WCI   9
BEMIDJI        LGT SNOW  19  17  93 NW6       29.44F WCI  10
6HR MIN TEMP:  18; 6HR MAX TEMP:  19; 6HR PCP:  0.04;

PARK RAPIDS    CLOUDY    19  15  84 W7        29.44F WCI  10
6HR MIN TEMP:  19; 6HR MAX TEMP:  20; 6HR PCP:  0.16;

ELBOW LAKE     MOCLDY    15  14  97 NW10      29.53R WCI   2
6HR MIN TEMP:  14; 6HR MAX TEMP:  22;

WADENA         LGT SNOW  18  16  93 W7        29.45F WCI   8
DETROIT LAKES  LGT SNOW  19  18  93 NW7       29.49F WCI  10
MOORHEAD       MIX PCPN   9   5  85 W5        29.54F WCI   0
FERGUS FALLS   FOG        7   3  85 W6        29.53S VSB 1   WCI  -3
MORRIS MN      CLOUDY    14  12  92 W14       29.53R WCI  -1
STAPLES        LGT SNOW  18  18 100 W6        29.45F WCI   9
$$
  *****  WEATHER ELSEWHERE ACROSS MINNESOTA  *****

CITY           SKY/WX    TMP DP  RH WIND       PRES   REMARKS
DULUTH         LGT SNOW  27  25  92 E16       29.37F VSB 3/4 WCI  15
6HR MIN TEMP:  23; 6HR MAX TEMP:  27; 6HR PCP:  0.39;

INTRNTL FALLS  SNOW      22  21  96 NE8       29.48F VSB 1/2 WCI  12
6HR MIN TEMP:  22; 6HR MAX TEMP:  26; 6HR PCP:  0.23;

ELY            LGT SNOW  25  25 100 NE3       29.40F
CLOQUET        LGT SNOW  27  23  86 E7        29.37F WCI  19
WHEATON        FAIR       9   7  92 W8        29.59S WCI  -4
BRAINERD       LGT SNOW  22  18  85 NW6       29.43F FOG     WCI  14
6HR MIN TEMP:  21; 6HR MAX TEMP:  24; 6HR PCP:  0.24;

HIBBING        LGT SNOW  23  22  96 NE5       29.40F VSB 1   WCI  17
6HR MIN TEMP:  22; 6HR MAX TEMP:  24; 6HR PCP:  0.22;

ALEXANDRIA     CLOUDY    19  17  92 W7        29.48F WCI  10
6HR MIN TEMP:  19; 6HR MAX TEMP:  22; 6HR PCP:  0.13;

SAINT CLOUD    LGT SNOW  23  21  92 W14       29.45F FOG     WCI  11
6HR MIN TEMP:  24; 6HR MAX TEMP:  26; 6HR PCP:  0.32;

MINNEAPOLIS    CLOUDY    23  21  92 W25G31    29.47R FOG     WCI   7
6HR MIN TEMP:  23; 6HR MAX TEMP:  30; 6HR PCP:  0.25;

$$

  *****  WEATHER ACROSS SOUTH DAKOTA  *****

CITY           SKY/WX    TMP DP  RH WIND       PRES   REMARKS
SIOUX FALLS    CLOUDY    13  10  88 W15       29.68S WCI  -3
6HR MIN TEMP:  11; 6HR MAX TEMP:  20; 6HR PCP: TRACE;

BROOKINGS      CLOUDY    13   9  84 W17       29.63R WCI  -4
WATERTOWN      CLOUDY    14  13  95 W14       29.58R WCI  -1
6HR MIN TEMP:  13; 6HR MAX TEMP:  15;

HURON          FAIR       8   4  83 W8        29.68S WCI  -4
6HR MIN TEMP:   3; 6HR MAX TEMP:  10;

SISSETON         N/A     17  13  84 W20       29.56S WCI   1
ABERDEEN       FAIR       0  -3  87 SW8       29.63R FOG     WCI -14
6HR MIN TEMP:   2; 6HR MAX TEMP:  19; 6HR PCP:  0.03;

MITCHELL       FAIR       9   4  80 W12       29.73S WCI  -6
PIERRE         FAIR      17  10  74 W21G26    29.68S WCI   0
6HR MIN TEMP:  11; 6HR MAX TEMP:  20;

MOBRIDGE       FAIR      13   5  70 W10       29.59F WCI   0
RAPID CITY     FAIR      11   3  70 CALM      29.70S
6HR MIN TEMP:   6; 6HR MAX TEMP:  23;

$$

  *****  SOME WEATHER IN NEARBY STATES *****

CITY           SKY/WX    TMP DP  RH WIND       PRES   REMARKS
GLASGOW MT     FAIR      19  12  74 W14       29.66F WCI   6
6HR MIN TEMP:  19; 6HR MAX TEMP:  23; 6HR PCP:  0.01;

GREAT FALLS MT FAIR      15   6  67 SW15      29.71F WCI   0
6HR MIN TEMP:  10; 6HR MAX TEMP:  24;

CHEYENNE WY    FAIR      20   5  52 W18G30    29.79R WCI   5
6HR MIN TEMP:  19; 6HR MAX TEMP:  24;

SCOTTSBLUFF NE FAIR      27  12  53 W14       29.80F WCI  16
6HR MIN TEMP:  23; 6HR MAX TEMP:  31;

OMAHA NE       FAIR      27  20  75 W12G25    29.84R WCI  17
6HR MIN TEMP:  27; 6HR MAX TEMP:  30;

DES MOINES IA  MOCLDY    31  27  85 W18       29.73R WCI  19
6HR MIN TEMP:  30; 6HR MAX TEMP:  33; 6HR PCP: TRACE;

DAVENPORT IA   CLOUDY    35  29  78 W23G32    29.66R WCI  23
6HR MIN TEMP:  35; 6HR MAX TEMP:  43; 6HR PCP:  0.42;

CHICAGO IL     LGT RAIN  50  47  89 SW15G21   29.46R FOG
6HR MIN TEMP:  41; 6HR MAX TEMP:  49; 6HR PCP:  0.11;

EAU CLAIRE WI  LGT SNOW  31  30  96 SW10      29.40F FOG     WCI  22
6HR MIN TEMP:  30; 6HR MAX TEMP:  32; 6HR PCP:  0.25;

LA CROSSE WI   CLOUDY    35  30  82 W10       29.48R
6HR MIN TEMP:  33; 6HR MAX TEMP:  35; 6HR PCP:  0.27;

$$

  *****  SOME NATIONAL WEATHER *****

CITY           SKY/WX    TMP DP  RH WIND       PRES   REMARKS
LA GUARDIA NY  CLOUDY    43  38  82 NE6       30.21S
6HR MIN TEMP:  43; 6HR MAX TEMP:  47; 6HR PCP:  0.01;

RALEIGH NC     FAIR      66  60  81 SW14      30.08S
6HR MIN TEMP:  66; 6HR MAX TEMP:  71;

ATLANTA GA     FAIR      68  59  73 SW8       30.07S
6HR MIN TEMP:  68; 6HR MAX TEMP:  75;

NEW ORLEANS LA MOCLDY    73  71  93 S7        30.04R
6HR MIN TEMP:  73; 6HR MAX TEMP:  77;

OKLAHOMA CITY  FAIR      34  31  88 SE5       30.01S
6HR MIN TEMP:  33; 6HR MAX TEMP:  48;

ALBUQUERQUE NM FAIR      31  10  41 SE6       30.01S
6HR MIN TEMP:  30; 6HR MAX TEMP:  44;

SALT LAKE CITY MOCLDY    28  19  69 SE12      30.01R WCI  18
6HR MIN TEMP:  27; 6HR


USA.gov is the U.S. government's official web portal to all federal, state and local government web resources and services.